GORIZONT 9 [-]

Last updated on Jan. 23, 2021, 7:21 a.m. UTC

1 14940U 84041A   21021.97577483  .00000078  00000-0  00000-0 0  9996
2 14940  12.3879 328.2414 0001867 222.9586 336.8479  1.00250136102168
UTC
Height (km)
Latitude
Longitude
Inclination
Orbital Period
UTC large
Height (km)
Speed (km/s)
/
Latitude / Longitude
Inclination (degrees)
Orbital Period (minutes)
Azimuth
Elevation
Range (km)
Doppler Factor
iOS Compass Heading
iOS Angle

Next 30 passes for location: Hong Kong

Rise time Rise Azimuth (degrees) Set time Set Azimuth (degrees) Duration Max altitude (degrees)

No matching passes for this satellites